GW6325 Weather Reports


Display with metric or nautical units.
time (UTC)temp
F
wind
direction
speed
MPH
gust
MPH
rain 1hr
in
rain 24hr
in
rain mn
in
humidity
%
barometer
mb
20260508202749 78 169 1.0 4.0 0.00 0.00 0.00 24 1016.9
20260508202247 77 190 2.0 4.0 0.00 0.00 0.00 24 1016.9
20260508201744 77 166 2.0 3.0 0.00 0.00 0.00 24 1017.0
20260508201241 76 168 2.0 3.0 0.00 0.00 0.00 25 1017.2
20260508200737 76 161 0.0 3.0 0.00 0.00 0.00 24 1017.0
20260508200234 75 147 2.0 4.0 0.00 0.00 0.00 25 1017.4
20260508195730 75 270 7.0 13.0 0.00 0.00 0.00 24 1017.0
20260508195226 76 238 4.0 6.0 0.00 0.00 0.00 23 1017.0
20260508194723 75 226 3.0 4.0 0.00 0.00 0.00 25 1017.2
20260508194220 75 171 4.0 4.0 0.00 0.00 0.00 24 1017.2
20260508193717 75 208 4.0 7.0 0.00 0.00 0.00 23 1017.4
20260508193214 75 157 2.0 7.0 0.00 0.00 0.00 23 1017.5
20260508192710 75 185 1.0 7.0 0.00 0.00 0.00 24 1017.2
20260508192208 75 159 1.0 4.0 0.00 0.00 0.00 24 1017.3
20260508191705 75 169 2.0 8.0 0.00 0.00 0.00 22 1017.4
20260508191201 75 278 5.0 8.0 0.00 0.00 0.00 23 1017.3
20260508190659 74 193 6.0 8.0 0.00 0.00 0.00 24 1017.3
20260508190155 75 158 3.0 6.0 0.00 0.00 0.00 30 1017.5
20260508185652 75 82 2.0 4.0 0.00 0.00 0.00 30 1017.3
20260508185149 75 158 3.0 4.0 0.00 0.00 0.00 29 1017.4
20260508184646 75 124 2.0 3.0 0.00 0.00 0.00 30 1017.4
20260508184144 73 177 1.0 2.0 0.00 0.00 0.00 29 1017.6
20260508183640 75 129 2.0 3.0 0.00 0.00 0.00 27 1017.6
20260508183136 74 142 3.0 3.0 0.00 0.00 0.00 30 1017.6
20260508182632 74 146 0.0 2.0 0.00 0.00 0.00 33 1017.6
20260508182129 74 177 1.0 6.0 0.00 0.00 0.00 28 1017.8
20260508181624 72 186 1.0 3.0 0.00 0.00 0.00 28 1018.0
20260508181122 73 110 2.0 7.0 0.00 0.00 0.00 27 1017.8
20260508180619 74 86 2.0 7.0 0.00 0.00 0.00 29 1017.8
20260508180115 73 121 3.0 6.0 0.00 0.00 0.00 28 1017.8
20260508175612 72 121 2.0 4.0 0.00 0.00 0.00 28 1017.8
20260508175109 73 86 1.0 2.0 0.00 0.00 0.00 28 1018.1
20260508174607 72 80 2.0 2.0 0.00 0.00 0.00 27 1018.1
20260508174103 73 237 3.0 4.0 0.00 0.00 0.00 25 1018.1
20260508173600 74 92 2.0 2.0 0.00 0.00 0.00 24 1018.2
20260508173056 74 153 0.0 2.0 0.00 0.00 0.00 25 1017.8
20260508172554 74 191 2.0 3.0 0.00 0.00 0.00 26 1018.1
20260508172050 73 163 0.0 2.0 0.00 0.00 0.00 28 1017.8
20260508171547 72 153 1.0 3.0 0.00 0.00 0.00 29 1017.8
20260508171043 70 106 3.0 4.0 0.00 0.00 0.00 30 1018.1
20260508170540 71 74 4.0 8.0 0.00 0.00 0.00 30 1018.2
20260508170038 72 130 2.0 3.0 0.00 0.00 0.00 30 1018.1
20260508165535 72 110 1.0 4.0 0.00 0.00 0.00 28 1018.1
20260508165032 70 164 0.0 1.0 0.00 0.00 0.00 29 1018.2
20260508164528 70 96 2.0 2.0 0.00 0.00 0.00 31 1018.0
20260508164025 70 82 4.0 4.0 0.00 0.00 0.00 31 1018.1
20260508163522 70 87 3.0 3.0 0.00 0.00 0.00 31 1018.0
20260508163019 71 98 1.0 2.0 0.00 0.00 0.00 29 1018.2
20260508162516 69 125 0.0 1.0 0.00 0.00 0.00 33 1017.8
20260508162013 70 85 4.0 4.0 0.00 0.00 0.00 32 1018.0
20260508161510 71 88 2.0 3.0 0.00 0.00 0.00 29 1018.0
20260508161007 69 140 0.0 1.0 0.00 0.00 0.00 30 1018.1
20260508160506 69 124 1.0 3.0 0.00 0.00 0.00 31 1018.1
20260508160002 69 111 2.0 2.0 0.00 0.00 0.00 30 1018.1
20260508155459 69 151 0.0 1.0 0.00 0.00 0.00 33 1018.1
20260508154955 69 131 1.0 1.0 0.00 0.00 0.00 30 1018.1
20260508154453 67 151 0.0 1.0 0.00 0.00 0.00 32 1017.7
20260508153950 67 104 2.0 2.0 0.00 0.00 0.00 33 1018.1
20260508153447 67 133 0.0 2.0 0.00 0.00 0.00 35 1018.0
20260508152943 66 139 1.0 2.0 0.00 0.00 0.00 38 1018.0
20260508152439 64 212 1.0 1.0 0.00 0.00 0.00 42 1018.2
20260508151936 64 108 1.0 2.0 0.00 0.00 0.00 42 1018.0
20260508151433 65 50 2.0 3.0 0.00 0.00 0.00 42 1018.0
20260508150929 66 160 0.0 1.0 0.00 0.00 0.00 40 1018.0
20260508150426 67 209 1.0 2.0 0.00 0.00 0.00 39 1017.8
20260508145922 65 151 0.0 1.0 0.00 0.00 0.00 41 1018.0
20260508145419 63 130 0.0 1.0 0.00 0.00 0.00 42 1018.0
20260508144915 62 117 1.0 2.0 0.00 0.00 0.00 43 1017.8
20260508144413 61 160 0.0 1.0 0.00 0.00 0.00 46 1017.7
20260508143910 60 157 1.0 2.0 0.00 0.00 0.00 48 1017.8
20260508143408 59 166 0.0 1.0 0.00 0.00 0.00 52 1017.6
20260508142904 59 152 1.0 3.0 0.00 0.00 0.00 52 1017.6
20260508142401 60 139 0.0 4.0 0.00 0.00 0.00 54 1017.6
20260508141857 60 146 0.0 1.0 0.00 0.00 0.00 48 1017.3
20260508141354 61 173 1.0 1.0 0.00 0.00 0.00 46 1017.4
20260508140852 61 154 0.0 1.0 0.00 0.00 0.00 45 1017.3
20260508140349 59 161 0.0 0.0 0.00 0.00 0.00 48 1017.2
20260508135844 58 177 0.0 1.0 0.00 0.00 0.00 47 1017.2
20260508135341 56 168 0.0 0.0 0.00 0.00 0.00 53 1017.3
20260508134837 56 170 0.0 1.0 0.00 0.00 0.00 52 1017.2
20260508134334 54 164 0.0 0.0 0.00 0.00 0.00 53 1017.2
20260508133831 52 169 0.0 0.0 0.00 0.00 0.00 57 1017.0
20260508133329 51 170 0.0 1.0 0.00 0.00 0.00 59 1017.3
20260508132825 50 172 0.0 1.0 0.00 0.00 0.00 62 1017.0
20260508132323 50 153 0.0 0.0 0.00 0.00 0.00 62 1017.2
20260508131820 50 165 0.0 0.0 0.00 0.00 0.00 62 1016.8
20260508131315 49 170 0.0 1.0 0.00 0.00 0.00 63 1016.9
20260508130812 49 173 0.0 1.0 0.00 0.00 0.00 62 1016.7
20260508130309 48 156 0.0 0.0 0.00 0.00 0.00 62 1016.7
20260508125805 49 170 0.0 0.0 0.00 0.00 0.00 61 1016.6
20260508125305 49 157 0.0 1.0 0.00 0.00 0.00 59 1016.6
20260508124800 50 162 0.0 0.0 0.00 0.00 0.00 56 1016.5
20260508124256 51 160 0.0 0.0 0.00 0.00 0.00 56 1016.5
20260508123755 50 165 0.0 0.0 0.00 0.00 0.00 52 1016.4
20260508123252 50 162 0.0 0.0 0.00 0.00 0.00 55 1016.1
20260508122748 49 151 0.0 0.0 0.00 0.00 0.00 57 1016.1
20260508122245 48 166 0.0 0.0 0.00 0.00 0.00 60 1016.1
20260508121743 48 163 0.0 0.0 0.00 0.00 0.00 62 1016.3
20260508121241 48 157 0.0 0.0 0.00 0.00 0.00 61 1016.0
20260508120738 48 166 0.0 0.0 0.00 0.00 0.00 62 1016.3
20260508120236 48 163 0.0 0.0 0.00 0.00 0.00 63 1016.4
20260508115733 48 173 0.0 1.0 0.00 0.00 0.00 63 1016.1
20260508115231 48 185 0.0 1.0 0.00 0.00 0.00 64 1016.1
20260508114727 48 170 0.0 0.0 0.00 0.00 0.00 65 1016.0
20260508114224 48 159 0.0 0.0 0.00 0.00 0.00 64 1016.0
20260508113720 48 163 0.0 0.0 0.00 0.00 0.00 63 1015.8
20260508113219 48 166 0.0 0.0 0.00 0.00 0.00 62 1015.9
20260508112715 49 153 0.0 0.0 0.00 0.00 0.00 61 1015.9
20260508112212 49 172 0.0 0.0 0.00 0.00 0.00 61 1015.9
20260508111709 49 150 0.0 0.0 0.00 0.00 0.00 62 1015.9
20260508111206 49 164 0.0 0.0 0.00 0.00 0.00 62 1015.8
20260508110703 49 164 0.0 0.0 0.00 0.00 0.00 60 1016.0
20260508110200 49 147 0.0 1.0 0.00 0.00 0.00 59 1015.7
20260508105700 49 130 1.0 1.0 0.00 0.00 0.00 58 1015.7
20260508105157 50 168 0.0 0.0 0.00 0.00 0.00 57 1015.7
20260508104655 49 132 1.0 2.0 0.00 0.00 0.00 58 1015.6
20260508104151 49 156 0.0 0.0 0.00 0.00 0.00 59 1015.7
20260508103649 49 153 0.0 1.0 0.00 0.00 0.00 60 1015.7
20260508103146 49 162 0.0 0.0 0.00 0.00 0.00 59 1015.7
20260508102643 50 160 0.0 0.0 0.00 0.00 0.00 58 1015.6
20260508102141 51 169 0.0 0.0 0.00 0.00 0.00 57 1015.6
20260508101638 51 173 0.0 1.0 0.00 0.00 0.00 56 1015.7
20260508101135 51 167 0.0 1.0 0.00 0.00 0.00 55 1015.6
20260508100633 51 146 0.0 2.0 0.00 0.00 0.00 57 1015.6
20260508100131 51 146 0.0 1.0 0.00 0.00 0.00 56 1015.5
20260508095627 51 119 0.0 3.0 0.00 0.00 0.00 56 1015.6
20260508095124 51 216 2.0 2.0 0.00 0.00 0.00 55 1015.5
20260508094621 51 174 1.0 1.0 0.00 0.00 0.00 56 1015.5
20260508094117 50 143 1.0 1.0 0.00 0.00 0.00 57 1015.6
20260508093615 51 178 0.0 1.0 0.00 0.00 0.00 56 1015.5
20260508093113 52 145 1.0 2.0 0.00 0.00 0.00 54 1015.6
20260508092609 52 184 1.0 2.0 0.00 0.00 0.00 54 1015.5
20260508092108 52 153 0.0 0.0 0.00 0.00 0.00 54 1015.5
20260508091605 52 218 1.0 1.0 0.00 0.00 0.00 55 1015.6
20260508091101 51 101 2.0 3.0 0.00 0.00 0.00 56 1015.7
20260508090600 51 115 2.0 3.0 0.00 0.00 0.00 60 1015.6
20260508090056 51 205 2.0 2.0 0.00 0.00 0.00 61 1015.6
20260508085552 50 140 1.0 1.0 0.00 0.00 0.00 61 1015.5
20260508085050 51 160 0.0 1.0 0.00 0.00 0.00 61 1015.6
20260508084547 50 175 1.0 1.0 0.00 0.00 0.00 62 1015.6
20260508084044 50 161 0.0 1.0 0.00 0.00 0.00 63 1015.7
20260508083541 50 167 0.0 0.0 0.00 0.00 0.00 63 1015.7
20260508083038 51 168 0.0 1.0 0.00 0.00 0.00 63 1015.8
20260508082534 50 165 0.0 1.0 0.00 0.00 0.00 64 1015.7
20260508082031 50 176 0.0 1.0 0.00 0.00 0.00 64 1015.6
20260508081529 50 176 0.0 0.0 0.00 0.00 0.00 63 1015.6
20260508081024 51 175 0.0 0.0 0.00 0.00 0.00 62 1015.6
20260508080522 51 172 0.0 0.0 0.00 0.00 0.00 62 1015.6
20260508080020 51 169 0.0 0.0 0.00 0.00 0.00 61 1015.5
20260508075516 52 169 0.0 0.0 0.00 0.00 0.00 61 1015.7
20260508075014 52 175 0.0 1.0 0.00 0.00 0.00 60 1015.6
20260508074511 52 176 0.0 2.0 0.00 0.00 0.00 60 1015.6
20260508074008 52 175 0.0 0.0 0.00 0.00 0.00 60 1015.5
20260508073505 52 179 0.0 1.0 0.00 0.00 0.00 59 1015.5
20260508073003 53 167 0.0 0.0 0.00 0.00 0.00 59 1015.2
20260508072458 53 167 0.0 0.0 0.00 0.00 0.00 58 1015.3
20260508071955 53 210 1.0 2.0 0.00 0.00 0.00 58 1015.5
20260508071454 53 180 0.0 0.0 0.00 0.00 0.00 57 1015.5
20260508070951 53 159 0.0 0.0 0.00 0.00 0.00 56 1015.3
20260508070449 54 161 0.0 0.0 0.00 0.00 0.00 55 1015.6
20260508065946 54 148 0.0 0.0 0.00 0.00 0.00 55 1015.6
20260508065444 54 172 0.0 1.0 0.00 0.00 0.00 54 1015.3
20260508064942 54 135 0.0 1.0 0.00 0.00 0.00 53 1015.3
20260508064439 55 168 0.0 0.0 0.00 0.00 0.00 53 1015.6
20260508063937 55 162 0.0 0.0 0.00 0.00 0.00 53 1015.3
20260508063434 55 162 0.0 0.0 0.00 0.00 0.00 52 1015.3
20260508062932 56 166 0.0 0.0 0.00 0.00 0.00 51 1015.3
20260508062429 57 174 0.0 0.0 0.00 0.00 0.00 50 1015.2
20260508061926 57 113 1.0 1.0 0.00 0.00 0.00 49 1015.1
20260508061424 58 138 0.0 1.0 0.00 0.00 0.00 48 1015.3
20260508060919 58 123 1.0 1.0 0.00 0.00 0.00 47 1015.2
20260508060417 58 155 0.0 0.0 0.00 0.00 0.00 45 1015.1
20260508055913 59 118 0.0 1.0 0.00 0.00 0.00 45 1015.1
20260508055410 59 173 0.0 0.0 0.00 0.00 0.00 44 1015.2
20260508054906 60 171 0.0 0.0 0.00 0.00 0.00 43 1015.1
20260508054404 61 171 0.0 0.0 0.00 0.00 0.00 41 1015.1
20260508053901 62 174 0.0 0.0 0.00 0.00 0.00 40 1015.2
20260508053358 62 171 0.0 1.0 0.00 0.00 0.00 39 1015.0
20260508052855 62 190 2.0 2.0 0.00 0.00 0.00 39 1015.0
20260508052353 62 194 1.0 1.0 0.00 0.00 0.00 39 1015.1
20260508051849 61 211 1.0 1.0 0.00 0.00 0.00 40 1015.0
20260508051344 61 172 0.0 0.0 0.00 0.00 0.00 40 1014.9
20260508050841 62 178 1.0 1.0 0.00 0.00 0.00 40 1015.0
20260508050338 62 164 0.0 1.0 0.00 0.00 0.00 40 1015.0
20260508045833 63 177 0.0 3.0 0.00 0.00 0.00 39 1015.1
20260508045331 63 181 1.0 2.0 0.00 0.00 0.00 38 1015.0
20260508044829 63 277 3.0 3.0 0.00 0.00 0.00 38 1015.1
20260508044325 63 184 2.0 3.0 0.00 0.00 0.00 37 1015.0
20260508043821 63 248 4.0 4.0 0.00 0.00 0.00 38 1015.0
20260508043319 63 165 0.0 2.0 0.00 0.00 0.00 38 1014.8
20260508042815 64 209 0.0 1.0 0.00 0.00 0.00 37 1015.0
20260508042313 64 261 3.0 3.0 0.00 0.00 0.00 37 1014.9
20260508041810 64 181 1.0 3.0 0.00 0.00 0.00 37 1014.9
20260508041306 63 179 1.0 2.0 0.00 0.00 0.00 38 1014.9
20260508040802 63 197 1.0 1.0 0.00 0.00 0.00 38 1014.7
20260508040300 64 192 0.0 2.0 0.00 0.00 0.00 38 1014.5
20260508035757 64 254 2.0 3.0 0.00 0.00 0.00 37 1014.7
20260508035255 64 208 2.0 3.0 0.00 0.00 0.00 37 1014.7
20260508034751 64 223 3.0 3.0 0.00 0.00 0.00 38 1014.5
20260508034248 64 216 1.0 3.0 0.00 0.00 0.00 38 1014.5
20260508033745 64 217 2.0 3.0 0.00 0.00 0.00 38 1014.5
20260508033244 64 209 2.0 2.0 0.00 0.00 0.00 39 1014.5
20260508032741 64 188 1.0 2.0 0.00 0.00 0.00 39 1014.3
20260508032238 63 182 1.0 3.0 0.00 0.00 0.00 41 1014.5
20260508031735 63 168 0.0 1.0 0.00 0.00 0.00 42 1014.3
20260508031231 64 175 0.0 1.0 0.00 0.00 0.00 41 1014.2
20260508030727 64 173 0.0 1.0 0.00 0.00 0.00 41 1014.2
20260508030225 64 161 0.0 2.0 0.00 0.00 0.00 41 1014.2
20260508025721 65 158 0.0 0.0 0.00 0.00 0.00 40 1014.2
20260508025219 66 170 0.0 1.0 0.00 0.00 0.00 38 1014.0
20260508024714 67 176 0.0 0.0 0.00 0.00 0.00 36 1014.0
20260508024212 68 166 0.0 0.0 0.00 0.00 0.00 36 1014.0
20260508023708 68 158 0.0 0.0 0.00 0.00 0.00 33 1014.0
20260508023206 69 159 0.0 0.0 0.00 0.00 0.00 33 1014.0
20260508022701 69 159 0.0 0.0 0.00 0.00 0.00 32 1013.9
20260508022158 70 163 0.0 0.0 0.00 0.00 0.00 32 1014.0
20260508021654 71 161 0.0 0.0 0.00 0.00 0.00 31 1013.9
20260508021150 72 168 0.0 1.0 0.00 0.00 0.00 30 1014.0
20260508020648 72 162 0.0 0.0 0.00 0.00 0.00 29 1013.9
20260508020145 73 145 0.0 1.0 0.00 0.00 0.00 29 1013.8
20260508015642 73 141 1.0 1.0 0.00 0.00 0.00 28 1013.9
20260508015139 73 139 0.0 1.0 0.00 0.00 0.00 27 1013.9
20260508014636 74 129 2.0 2.0 0.00 0.00 0.00 27 1014.1
20260508014132 74 157 0.0 1.0 0.00 0.00 0.00 27 1013.8
20260508013628 74 163 0.0 2.0 0.00 0.00 0.00 26 1013.9
20260508013125 74 169 0.0 1.0 0.00 0.00 0.00 27 1014.0
20260508012623 74 165 0.0 2.0 0.00 0.00 0.00 27 1013.9
20260508012120 74 157 0.0 1.0 0.00 0.00 0.00 26 1013.8
20260508011618 74 156 1.0 2.0 0.00 0.00 0.00 27 1013.9
20260508011115 74 109 1.0 2.0 0.00 0.00 0.00 27 1014.0
20260508010612 74 160 3.0 4.0 0.00 0.00 0.00 27 1014.0
20260508010110 74 87 3.0 4.0 0.00 0.00 0.00 26 1014.1
20260508005606 74 125 1.0 3.0 0.00 0.00 0.00 27 1014.0
20260508005102 74 145 1.0 3.0 0.00 0.00 0.00 27 1014.2
20260508004558 75 113 1.0 3.0 0.00 0.00 0.00 26 1014.2
20260508004055 75 157 1.0 2.0 0.00 0.00 0.00 27 1013.9
20260508003552 75 145 2.0 2.0 0.00 0.00 0.00 27 1014.1
20260508003050 75 114 1.0 7.0 0.00 0.00 0.00 27 1014.0
20260508002545 74 90 3.0 4.0 0.00 0.00 0.00 27 1014.0
20260508002043 75 103 4.0 4.0 0.00 0.00 0.00 26 1014.1
20260508001538 75 149 0.0 4.0 0.00 0.00 0.00 28 1013.9
20260508001035 74 127 1.0 2.0 0.00 0.00 0.00 27 1013.8
20260508000531 75 91 5.0 6.0 0.00 0.00 0.00 25 1013.9
20260508000029 75 115 3.0 4.0 0.00 0.00 0.00 27 1014.0
20260507235525 75 91 2.0 4.0 0.00 0.00 0.00 27 1013.9
20260507235023 75 153 1.0 3.0 0.00 0.00 0.00 27 1014.2
20260507234519 74 104 2.0 6.0 0.00 0.00 0.00 27 1014.4
20260507234015 74 106 6.0 8.0 0.00 0.00 0.00 27 1014.4
20260507233512 75 128 2.0 3.0 0.00 0.00 0.00 26 1014.5
20260507233011 75 91 4.0 6.0 0.00 0.00 0.00 26 1014.7
20260507232507 75 79 4.0 6.0 0.00 0.00 0.00 27 1014.7
20260507232004 74 111 2.0 3.0 0.00 0.00 0.00 27 1014.8
20260507231500 74 88 2.0 3.0 0.00 0.00 0.00 27 1014.8
20260507230958 74 89 2.0 6.0 0.00 0.00 0.00 28 1014.9
20260507230454 74 97 3.0 4.0 0.00 0.00 0.00 27 1014.7
20260507225949 74 110 5.0 6.0 0.00 0.00 0.00 27 1014.7
20260507225446 74 86 2.0 4.0 0.00 0.00 0.00 28 1014.7
20260507224942 74 86 4.0 7.0 0.00 0.00 0.00 26 1015.1
20260507224438 73 165 4.0 7.0 0.00 0.00 0.00 28 1015.3
20260507223935 73 97 3.0 3.0 0.00 0.00 0.00 30 1015.5
20260507223431 73 93 1.0 2.0 0.00 0.00 0.00 30 1015.5
20260507222928 75 87 3.0 6.0 0.00 0.00 0.00 30 1015.5
20260507222425 75 115 2.0 6.0 0.00 0.00 0.00 27 1015.6
20260507221922 74 139 2.0 3.0 0.00 0.00 0.00 29 1015.7
20260507221418 72 124 1.0 2.0 0.00 0.00 0.00 28 1015.6
20260507220914 71 169 0.0 1.0 0.00 0.00 0.00 28 1015.9
20260507220412 71 139 0.0 1.0 0.00 0.00 0.00 28 1015.9
20260507215908 71 126 2.0 3.0 0.00 0.00 0.00 27 1016.0
20260507215406 71 138 0.0 3.0 0.00 0.00 0.00 27 1016.3
20260507214903 71 87 3.0 3.0 0.00 0.00 0.00 28 1016.0
20260507214400 71 96 1.0 3.0 0.00 0.00 0.00 27 1016.1
20260507213855 71 107 2.0 3.0 0.00 0.00 0.00 27 1016.3
20260507213352 71 89 4.0 7.0 0.00 0.00 0.00 28 1016.4
20260507212849 72 126 3.0 3.0 0.00 0.00 0.00 26 1016.4
20260507212345 72 95 3.0 4.0 0.00 0.00 0.00 28 1016.4
20260507211842 73 66 4.0 6.0 0.00 0.00 0.00 27 1016.5
20260507211339 73 129 1.0 2.0 0.00 0.00 0.00 28 1016.5
20260507210836 73 145 1.0 2.0 0.00 0.00 0.00 26 1016.5
20260507210333 72 116 1.0 3.0 0.00 0.00 0.00 26 1016.7
20260507205829 72 168 3.0 3.0 0.00 0.00 0.00 27 1016.7
20260507205326 73 151 0.0 2.0 0.00 0.00 0.00 27 1016.9
20260507204822 72 209 3.0 4.0 0.00 0.00 0.00 27 1016.9
20260507204320 73 141 2.0 4.0 0.00 0.00 0.00 27 1017.0
20260507203817 72 135 1.0 2.0 0.00 0.00 0.00 26 1017.2
20260507203315 71 160 0.0 3.0 0.00 0.00 0.00 26 1016.8